Regional Weather Roundup
Issued by NWS

Home | Current Version | Previous Version | Graphics & Text | Print | Product List | Glossary On
Versions: 1 2 3 4 5 6 7 8 9 10 11 12 13 14 15 16 17 18 19 20 21 22 23 24 25 26 27 28 29 30 31 32 33 34 35 36 37 38 39 40 41 42 43 44 45 46 47 48 49 50
000
ASUS43 KFSD 012202
RWRSD

WEATHER ROUNDUP FOR SOUTH DAKOTA
NATIONAL WEATHER SERVICE SIOUX FALLS SD
500 PM CDT FRI AUG 01 2014

NOTE: "FAIR" INDICATES FEW OR NO CLOUDS BELOW 12,000 FEET WITH NO
SIGNIFICANT WEATHER AND/OR OBSTRUCTIONS TO VISIBILITY.


SDZ001>005-009-010-012>017-012300-
NORTHWEST AND NORTH CENTRAL SOUTH DAKOTA

CITY           SKY/WX    TMP DP  RH WIND       PRES   REMARKS
BUFFALO          N/A     91  49  23 VRB5      29.99F
FAITH            N/A     91  45  20 E6        30.01F
MOBRIDGE       PTSUNNY   88  60  38 SE13      30.00F
$$

SDZ012>016-024>037-041>051-057-063-072>074-012300-
SOUTHWEST AND SOUTH CENTRAL SOUTH DAKOTA

CITY           SKY/WX    TMP DP  RH WIND       PRES   REMARKS
RAPID CTY ARPT PTSUNNY   79  51  37 SE6       30.07F
PIERRE         SUNNY     91  56  30 E17       29.99F
CUSTER         PTSUNNY   74  47  38 NE14      30.25R
ELLSWORTH AFB  PTSUNNY   84  48  29 S9        30.08R
PHILIP         MOSUNNY   94  42  16 E3        29.97F
PINE RIDGE     MOSUNNY   88  46  23 NE16G22   30.10R
WINNER         FAIR      93  50  23 SE7       30.04F
$$

SDZ004>011-016>023-039-040-012300-
NORTHEAST SOUTH DAKOTA

CITY           SKY/WX    TMP DP  RH WIND       PRES   REMARKS
ABERDEEN       SUNNY     84  52  33 E7        30.06F
WATERTOWN      MOSUNNY   82  54  37 S5        30.09F
SISSETON         N/A     84  59  42 NE3       30.05F
$$

SDZ017-020-022-023-036>040-048>070-012300-
SOUTHEAST SOUTH DAKOTA

CITY           SKY/WX    TMP DP  RH WIND       PRES   REMARKS
SIOUX FALLS    MOSUNNY   82  59  45 E5        30.09S
HURON          SUNNY     85  56  37 SE7       30.05F
CHAMBERLAIN    SUNNY     89  57  34 SE6       30.04F
MITCHELL       SUNNY     83  56  39 VRB7      30.08S
YANKTON        SUNNY     81  55  41 S6        30.09S
$$

ABBREVIATIONS USED IN REMARKS
   TC - TEMPERATURE IN CELSIUS
  WCI - WIND CHILL INDEX
   HX - HEAT INDEX
  VSB - VISIBILITY




USA.gov is the U.S. government's official web portal to all federal, state and local government web resources and services.